Time,TemperatureF,DewpointF,PressureIn,WindDirection,WindDirectionDegrees,WindSpeedMPH,WindSpeedGustMPH,Humidity,HourlyPrecipIn,Conditions,Clouds,dailyrainin,SoftwareType,DateUTC
2013-03-30 00:11:00,34.7,34.2,30.14,South,180,0.0,-999.0,98,-99.99,,,0.00,Acu-Link.com,2013-03-30 05:11:00,
2013-03-30 00:28:00,34.3,33.8,30.14,SSW,202,0.0,-999.0,98,-99.99,,,0.00,Acu-Link.com,2013-03-30 05:28:00,
2013-03-30 00:44:00,34.5,34.0,30.14,SSE,157,0.0,-999.0,98,-99.99,,,0.00,Acu-Link.com,2013-03-30 05:44:00,
2013-03-30 00:59:00,34.3,33.8,30.14,SSE,157,0.0,-999.0,98,-99.99,,,0.00,Acu-Link.com,2013-03-30 05:59:00,
2013-03-30 01:14:00,32.9,32.4,30.14,SSE,157,0.0,-999.0,98,-99.99,,,0.00,Acu-Link.com,2013-03-30 06:14:00,
2013-03-30 01:31:00,32.2,31.7,30.14,SSE,157,0.0,-999.0,98,-99.99,,,0.00,Acu-Link.com,2013-03-30 06:31:00,
2013-03-30 01:47:00,32.5,32.0,30.14,SSE,157,0.0,-999.0,98,-99.99,,,0.00,Acu-Link.com,2013-03-30 06:47:00,
2013-03-30 02:03:00,31.6,31.1,30.14,South,180,0.0,-999.0,98,-99.99,,,0.00,Acu-Link.com,2013-03-30 07:03:00,
2013-03-30 02:18:00,31.3,30.8,30.13,South,180,0.0,-999.0,98,-99.99,,,0.00,Acu-Link.com,2013-03-30 07:18:00,
2013-03-30 02:33:00,30.9,30.4,30.13,South,180,0.0,-999.0,98,-99.99,,,0.00,Acu-Link.com,2013-03-30 07:33:00,
2013-03-30 02:48:00,31.6,31.1,30.12,SE,135,0.0,-999.0,98,-99.99,,,0.00,Acu-Link.com,2013-03-30 07:48:00,
2013-03-30 03:04:00,31.8,31.3,30.12,South,180,0.0,-999.0,98,-99.99,,,0.00,Acu-Link.com,2013-03-30 08:04:00,
2013-03-30 03:19:00,31.3,30.8,30.12,South,180,0.0,-999.0,98,-99.99,,,0.00,Acu-Link.com,2013-03-30 08:19:00,
2013-03-30 03:35:00,31.1,30.6,30.11,East,90,0.0,-999.0,98,-99.99,,,0.00,Acu-Link.com,2013-03-30 08:35:00,
2013-03-30 03:50:00,30.9,30.4,30.11,SSW,202,0.0,-999.0,98,-99.99,,,0.00,Acu-Link.com,2013-03-30 08:50:00,
2013-03-30 04:05:00,30.9,30.4,30.12,SSW,202,0.0,-999.0,98,-99.99,,,0.00,Acu-Link.com,2013-03-30 09:05:00,
2013-03-30 04:22:00,29.3,28.8,30.12,SSW,202,0.0,-999.0,98,-99.99,,,0.00,Acu-Link.com,2013-03-30 09:22:00,
2013-03-30 04:39:00,28.8,28.3,30.12,SSW,202,0.0,-999.0,98,-99.99,,,0.00,Acu-Link.com,2013-03-30 09:39:00,
2013-03-30 04:55:00,28.8,28.3,30.13,SSW,202,0.0,-999.0,98,-99.99,,,0.00,Acu-Link.com,2013-03-30 09:55:00,
2013-03-30 05:27:00,28.8,28.3,30.12,South,180,0.0,-999.0,98,-99.99,,,0.00,Acu-Link.com,2013-03-30 10:27:00,
2013-03-30 05:43:00,28.8,28.3,30.12,SSW,202,0.0,-999.0,98,-99.99,,,0.00,Acu-Link.com,2013-03-30 10:43:00,
2013-03-30 05:58:00,29.7,29.2,30.12,SE,135,0.0,-999.0,98,-99.99,,,0.00,Acu-Link.com,2013-03-30 10:58:00,
2013-03-30 06:14:00,30.2,29.7,30.10,SW,225,0.0,-999.0,98,-99.99,,,0.00,Acu-Link.com,2013-03-30 11:14:00,
2013-03-30 06:32:00,31.1,30.6,30.09,ESE,112,0.0,-999.0,98,-99.99,,,0.00,Acu-Link.com,2013-03-30 11:32:00,
2013-03-30 06:48:00,32.4,31.9,30.10,South,180,0.0,-999.0,98,-99.99,,,0.00,Acu-Link.com,2013-03-30 11:48:00,
2013-03-30 07:04:00,32.4,31.9,30.09,ESE,112,0.0,-999.0,98,-99.99,,,0.00,Acu-Link.com,2013-03-30 12:04:00,
2013-03-30 07:20:00,34.9,34.4,30.09,SSW,202,0.0,-999.0,98,-99.99,,,0.00,Acu-Link.com,2013-03-30 12:20:00,
2013-03-30 07:37:00,37.9,37.4,30.09,SW,225,1.7,-999.0,98,-99.99,,,0.00,Acu-Link.com,2013-03-30 12:37:00,
2013-03-30 07:54:00,40.3,39.8,30.08,WNW,292,0.0,-999.0,98,-99.99,,,0.00,Acu-Link.com,2013-03-30 12:54:00,
2013-03-30 08:09:00,41.2,40.7,30.09,SE,135,4.7,-999.0,98,-99.99,,,0.00,Acu-Link.com,2013-03-30 13:09:00,
2013-03-30 08:24:00,41.7,41.2,30.08,ESE,112,3.2,-999.0,98,-99.99,,,0.00,Acu-Link.com,2013-03-30 13:24:00,
2013-03-30 08:39:00,44.4,43.9,30.08,SSE,157,5.3,-999.0,98,-99.99,,,0.00,Acu-Link.com,2013-03-30 13:39:00,
2013-03-30 08:55:00,46.0,45.5,30.07,SE,135,3.2,-999.0,98,-99.99,,,0.00,Acu-Link.com,2013-03-30 13:55:00,
2013-03-30 09:10:00,48.2,47.7,30.07,SSE,157,4.7,-999.0,98,-99.99,,,0.00,Acu-Link.com,2013-03-30 14:10:00,
2013-03-30 09:25:00,49.6,49.1,30.06,ESE,112,3.2,-999.0,98,-99.99,,,0.00,Acu-Link.com,2013-03-30 14:25:00,
2013-03-30 09:40:00,50.9,50.4,30.06,SSW,202,5.3,-999.0,98,-99.99,,,0.00,Acu-Link.com,2013-03-30 14:40:00,
2013-03-30 09:58:00,52.5,52.0,30.06,South,180,8.3,-999.0,98,-99.99,,,0.00,Acu-Link.com,2013-03-30 14:58:00,
2013-03-30 10:13:00,53.2,52.6,30.05,SW,225,7.3,-999.0,98,-99.99,,,0.00,Acu-Link.com,2013-03-30 15:13:00,
2013-03-30 10:28:00,53.8,53.2,30.05,WSW,247,6.8,-999.0,98,-99.99,,,0.00,Acu-Link.com,2013-03-30 15:28:00,
2013-03-30 10:44:00,54.1,53.5,30.05,SW,225,3.2,-999.0,98,-99.99,,,0.00,Acu-Link.com,2013-03-30 15:44:00,
2013-03-30 10:59:00,55.6,55.0,30.05,SSW,202,4.7,-999.0,98,-99.99,,,0.00,Acu-Link.com,2013-03-30 15:59:00,
2013-03-30 11:15:00,56.1,55.5,30.04,SSE,157,5.3,-999.0,98,-99.99,,,0.00,Acu-Link.com,2013-03-30 16:15:00,
2013-03-30 11:47:00,57.2,56.6,30.03,South,180,5.8,-999.0,98,-99.99,,,0.00,Acu-Link.com,2013-03-30 16:47:00,
2013-03-30 12:02:00,57.2,56.6,30.03,SW,225,5.3,-999.0,98,-99.99,,,0.00,Acu-Link.com,2013-03-30 17:02:00,
2013-03-30 12:18:00,57.4,56.8,30.02,SSE,157,6.8,-999.0,98,-99.99,,,0.00,Acu-Link.com,2013-03-30 17:18:00,
2013-03-30 12:33:00,58.5,57.9,30.01,SSE,157,8.9,-999.0,98,-99.99,,,0.00,Acu-Link.com,2013-03-30 17:33:00,
2013-03-30 12:49:00,58.3,57.7,30.00,SW,225,8.9,-999.0,98,-99.99,,,0.00,Acu-Link.com,2013-03-30 17:49:00,
2013-03-30 13:06:00,58.8,58.2,29.98,SW,225,7.3,-999.0,98,-99.99,,,0.00,Acu-Link.com,2013-03-30 18:06:00,
2013-03-30 13:23:00,58.6,58.0,29.98,West,270,6.8,-999.0,98,-99.99,,,0.00,Acu-Link.com,2013-03-30 18:23:00,
2013-03-30 13:39:00,58.1,57.5,29.97,South,180,6.8,-999.0,98,-99.99,,,0.00,Acu-Link.com,2013-03-30 18:39:00,
2013-03-30 13:54:00,57.7,57.1,29.96,WNW,292,7.3,-999.0,98,-99.99,,,0.00,Acu-Link.com,2013-03-30 18:54:00,
2013-03-30 14:10:00,57.4,56.8,29.96,West,270,11.4,-999.0,98,-99.99,,,0.00,Acu-Link.com,2013-03-30 19:10:00,
2013-03-30 14:25:00,56.8,56.2,29.95,SW,225,4.7,-999.0,98,-99.99,,,0.00,Acu-Link.com,2013-03-30 19:25:00,
2013-03-30 14:57:00,55.4,54.8,29.94,SW,225,5.3,-999.0,98,-99.99,,,0.00,Acu-Link.com,2013-03-30 19:57:00,
2013-03-30 15:13:00,55.2,54.6,29.93,WSW,247,4.7,-999.0,98,-99.99,,,0.00,Acu-Link.com,2013-03-30 20:13:00,
2013-03-30 15:30:00,55.2,54.6,29.92,South,180,4.7,-999.0,98,-99.99,,,0.00,Acu-Link.com,2013-03-30 20:30:00,
2013-03-30 15:45:00,54.7,54.1,29.92,SSW,202,5.3,-999.0,98,-99.99,,,0.00,Acu-Link.com,2013-03-30 20:45:00,
2013-03-30 16:00:00,54.3,53.7,29.91,SW,225,4.2,-999.0,98,-99.99,,,0.00,Acu-Link.com,2013-03-30 21:00:00,
2013-03-30 16:16:00,54.1,53.5,29.91,SSW,202,3.2,-999.0,98,-99.99,,,0.00,Acu-Link.com,2013-03-30 21:16:00,
2013-03-30 17:01:00,53.2,52.6,29.90,South,180,4.2,-999.0,98,-99.99,,,0.00,Acu-Link.com,2013-03-30 22:01:00,
2013-03-30 17:18:00,53.2,52.6,29.89,ESE,112,6.3,-999.0,98,-99.99,,,0.00,Acu-Link.com,2013-03-30 22:18:00,
2013-03-30 17:34:00,53.1,52.5,29.88,WSW,247,6.8,-999.0,98,-99.99,,,0.00,Acu-Link.com,2013-03-30 22:34:00,
2013-03-30 17:49:00,53.1,52.5,29.87,SSW,202,6.8,-999.0,98,-99.99,,,0.00,Acu-Link.com,2013-03-30 22:49:00,
2013-03-30 18:04:00,52.9,52.4,29.87,SSW,202,5.8,-999.0,98,-99.99,,,0.00,Acu-Link.com,2013-03-30 23:04:00,
2013-03-30 18:38:00,52.0,51.5,29.86,SSE,157,5.8,-999.0,98,-99.99,,,0.00,Acu-Link.com,2013-03-30 23:38:00,
2013-03-30 18:54:00,51.4,50.9,29.86,WSW,247,2.2,-999.0,98,-99.99,,,0.00,Acu-Link.com,2013-03-30 23:54:00,
2013-03-30 19:10:00,50.0,49.5,29.86,SW,225,2.2,-999.0,98,-99.99,,,0.00,Acu-Link.com,2013-03-31 00:10:00,
2013-03-30 19:26:00,48.9,48.4,29.85,SW,225,0.0,-999.0,98,-99.99,,,0.00,Acu-Link.com,2013-03-31 00:26:00,
2013-03-30 19:42:00,48.2,47.7,29.85,WSW,247,2.7,-999.0,98,-99.99,,,0.00,Acu-Link.com,2013-03-31 00:42:00,
2013-03-30 19:57:00,47.8,47.3,29.85,SSW,202,0.0,-999.0,98,-99.99,,,0.00,Acu-Link.com,2013-03-31 00:57:00,
2013-03-30 20:12:00,47.7,47.2,29.85,SSW,202,0.0,-999.0,98,-99.99,,,0.00,Acu-Link.com,2013-03-31 01:12:00,
2013-03-30 20:27:00,46.8,46.3,29.85,South,180,0.0,-999.0,98,-99.99,,,0.00,Acu-Link.com,2013-03-31 01:27:00,
2013-03-30 20:43:00,46.9,46.4,29.84,SSW,202,0.0,-999.0,98,-99.99,,,0.00,Acu-Link.com,2013-03-31 01:43:00,
2013-03-30 20:59:00,46.4,45.9,29.84,SSW,202,0.0,-999.0,98,-99.99,,,0.00,Acu-Link.com,2013-03-31 01:59:00,
2013-03-30 21:15:00,46.2,45.7,29.85,SSW,202,0.0,-999.0,98,-99.99,,,0.00,Acu-Link.com,2013-03-31 02:15:00,
2013-03-30 21:31:00,46.2,45.7,29.84,South,180,0.0,-999.0,98,-99.99,,,0.00,Acu-Link.com,2013-03-31 02:31:00,
2013-03-30 21:46:00,45.9,45.4,29.84,SSW,202,0.0,-999.0,98,-99.99,,,0.00,Acu-Link.com,2013-03-31 02:46:00,
2013-03-30 22:02:00,45.9,45.4,29.84,SSW,202,0.0,-999.0,98,-99.99,,,0.00,Acu-Link.com,2013-03-31 03:02:00,
2013-03-30 22:19:00,46.2,45.7,29.84,SSW,202,1.1,-999.0,98,-99.99,,,0.00,Acu-Link.com,2013-03-31 03:19:00,
2013-03-30 22:35:00,46.8,46.3,29.84,SW,225,2.2,-999.0,98,-99.99,,,0.00,Acu-Link.com,2013-03-31 03:35:00,
2013-03-30 22:50:00,46.9,46.4,29.83,SSW,202,0.0,-999.0,98,-99.99,,,0.00,Acu-Link.com,2013-03-31 03:50:00,
2013-03-30 23:05:00,46.9,46.4,29.82,SW,225,1.7,-999.0,98,-99.99,,,0.00,Acu-Link.com,2013-03-31 04:05:00,
2013-03-30 23:22:00,46.9,46.4,29.81,SW,225,3.2,-999.0,98,-99.99,,,0.00,Acu-Link.com,2013-03-31 04:22:00,
2013-03-30 23:37:00,46.9,46.4,29.81,SW,225,3.2,-999.0,98,-99.99,,,0.00,Acu-Link.com,2013-03-31 04:37:00,
2013-03-30 23:53:00,46.8,46.3,29.81,SW,225,1.1,-999.0,98,-99.99,,,0.00,Acu-Link.com,2013-03-31 04:53:00,